Location: Coupvray
(48.8929°N, 2.7967°E)
Time: 23:16:55
(UTC+00:00)

Cosmos 1241 Rocket - Pass Details

Date: 05 November 2020
Orbit: 929 x 1018 km, 65.8° (Epoch: 28 November)

Event Time Altitude Azimuth Distance (km) Brightness Sun altitude
Rises 17:12:20 0° 270° (W) 3,673 9.4 -8.7°
Reaches altitude 10° 17:15:27 10° 284° (WNW) 2,743 8.0 -9.2°
Maximum altitude 17:20:33 24° 337° (NNW) 1,942 6.2 -10.1°
Drops below altitude 10° 17:25:44 10° 29° (NNE) 2,793 6.5 -10.9°
Enters shadow 17:27:27 - 38° (NE) 3,286 6.8 -11.2°
